Location: ?astrovice
(49.6513°N, 14.9287°E)
Time: 05:20:51
(UTC+00:00)

STARLINK-1244 - Pass Details

Date: 09 April 2020
Orbit: 549 x 551 km, 53.0° (Epoch: 01 June)

Event Time Altitude Azimuth Distance (km) Brightness Sun altitude
Rises 18:05:49 0° 286° (WNW) 2,780 10.5 -4.1°
Reaches altitude 10° 18:08:05 10° 290° (WNW) 1,884 8.3 -4.5°
Maximum altitude 18:12:21 61° 12° (NNE) 655 4.1 -5.1°
Drops below altitude 10° 18:16:37 10° 93° (E) 1,885 5.7 -5.8°
Enters shadow 18:17:20 - 95° (E) 2,169 6.0 -5.9°
